Regional Weather Roundup
Issued by NWS

Home | Current Version | Previous Version | Text Only | Print | Product List | Glossary Off
Versions: 1 2 3 4 5 6 7 8 9 10 11 12 13 14 15 16 17 18 19 20 21 22 23 24 25 26 27 28 29 30 31 32 33 34 35 36 37 38 39 40 41 42 43 44 45 46 47 48 49 50

000
ASUS43 KOAX 291402
RWRNE

WEATHER ROUNDUP FOR NEBRASKA
NATIONAL WEATHER SERVICE OMAHA NE
900 AM CDT WED OCT 29 2014

NOTES: SATELLITE DATA IS BEING USED TO AUGMENT CLOUD COVER ABOVE
       12000 FEET.
       "FAIR" INDICATES FEW OR NO CLOUDS BELOW 12,000 FEET WITH NO
       SIGNIFICANT WEATHER AND/OR OBSTRUCTIONS TO VISIBILITY.

  * THESE STATIONS DO NOT REPORT WEATHER SUCH AS RAIN...SNOW OR FOG.

NEZ001>004-019>022-054>056-291500-
NEBRASKA PANHANDLE

CITY           SKY/WX    TMP DP  RH WIND       PRES   REMARKS
SCOTTSBLUFF    PTCLDY    26  24  92 N5        30.12S WCI  20
ALLIANCE       CLEAR     22  19  89 W3        30.10S
CHADRON        PTCLDY    23  19  85 SW8       30.08S WCI  14
KIMBALL        CLEAR     30  23  73 W3        30.13S
SIDNEY         CLEAR     27  22  81 W6        30.13F WCI  20
$$

NEZ057>060-069>072-079>082-291500-
SOUTHWEST NEBRASKA

CITY           SKY/WX    TMP DP  RH WIND       PRES   REMARKS
NORTH PLATTE   PTCLDY    24  20  84 SE3       30.17S
IMPERIAL       PTCLDY    28  20  71 W5        30.16S WCI  23
LEXINGTON      PTCLDY    27  24  86 CALM      30.19S FOG
MCCOOK         CLEAR     26  22  84 VRB3      30.18F
OGALLALA       PTCLDY    23  21  92 CALM      30.15S
$$

NEZ005>010-023>029-035>040-094-291500-
NORTH CENTRAL NEBRASKA

CITY           SKY/WX    TMP DP  RH WIND       PRES   REMARKS
VALENTINE      CLEAR     23  19  85 CALM      30.12F
AINSWORTH      CLEAR     27  22  83 S6        30.14F WCI  20
BROKEN BOW     PTCLDY    27  23  85 CALM      30.18S
O`NEILL        PTCLDY    27  25  93 CALM      30.18S
ORD            PTCLDY    24  20  84 CALM      30.20R
THEDFORD       PTCLDY    27  21  80 CALM      30.14F
$$

NEZ041-046>049-061>064-073>077-083>087-291500-
SOUTH CENTRAL NEBRASKA

CITY           SKY/WX    TMP DP  RH WIND       PRES   REMARKS
GRAND ISLAND   FAIR      32  27  81 CALM      30.22S
AURORA         CLEAR     30  26  84 CALM      30.22S
HASTINGS       CLEAR     32  26  78 CALM      30.22R
HEBRON         SUNNY     31  26  84 CALM      30.25R
HOLDREGE       CLEAR     30  24  77 CALM      30.20S
KEARNEY *      PTCLDY    28  21  74 CALM      30.21S
YORK           SUNNY     32  28  86 CALM      30.24R
$$

NEZ011>018-030>034-042>045-291500-
NORTHEAST NEBRASKA

CITY           SKY/WX    TMP DP  RH WIND       PRES   REMARKS
NORFOLK        CLEAR     30  26  85 CALM      30.22R
ALBION         CLEAR     26  23  89 CALM      30.22R
BLAIR          SUNNY     34  30  85 CALM      30.23R
COLUMBUS *     CLEAR     28  25  86 CALM      30.24S
FREMONT        SUNNY     33  31  92 W5        30.24R WCI  28
TEKAMAH        SUNNY     34  29  82 CALM      30.24R
WAYNE          CLEAR     29  27  92 CALM      30.22R
$$

NEZ050>053-065>068-078-088>093-291500-
SOUTHEAST NEBRASKA

CITY           SKY/WX    TMP DP  RH WIND       PRES   REMARKS
LINCOLN        SUNNY     33  28  81 CALM      30.26R
OMAHA EPPLEY   SUNNY     37  30  75 W3        30.25R
BEATRICE       SUNNY     32  30  92 CALM      30.26R
FALLS CITY     SUNNY     37  32  82 W7        30.25R WCI  32
NEBRASKA CITY  SUNNY     38  31  74 N3        30.25R
PLATTSMOUTH    SUNNY     35  31  85 W3        30.24R
$$

NEZ044-045-051>053-067-291500-
OMAHA AREA

CITY           SKY/WX    TMP DP  RH WIND       PRES   REMARKS
OMAHA EPPLEY   SUNNY     37  30  75 W3        30.25R
BLAIR          SUNNY     34  30  85 CALM      30.23R
FREMONT        SUNNY     33  31  92 W5        30.24R WCI  28
MILLARD        SUNNY     36  31  82 CALM      30.24R
OFFUTT AFB     SUNNY     35  31  82 SW5       30.24R WCI  31
PLATTSMOUTH    SUNNY     35  31  85 W3        30.24R
WAHOO          FAIR      34  30  85 CALM      30.24R
$$



USA.gov is the U.S. government's official web portal to all federal, state and local government web resources and services.